TimeCST,TemperatureF,Dew PointF,Humidity,Sea Level PressureIn,VisibilityMPH,Wind Direction,Wind SpeedMPH,Gust SpeedMPH,PrecipitationIn,Events,Conditions,WindDirDegrees,DateUTC
12:15 AM,25.0,19.9,81,30.22,10.0,WNW,3.5,-,N/A,,Clear,290,2013-03-03 06:15:00
12:35 AM,25.9,20.1,79,30.22,10.0,WNW,3.5,-,N/A,,Clear,300,2013-03-03 06:35:00
12:55 AM,24.8,19.8,81,30.22,10.0,Calm,Calm,-,N/A,,Clear,0,2013-03-03 06:55:00
1:15 AM,24.8,19.8,81,30.22,10.0,WNW,3.5,-,N/A,,Clear,290,2013-03-03 07:15:00
1:35 AM,24.6,19.6,81,30.21,10.0,Calm,Calm,-,N/A,,Clear,0,2013-03-03 07:35:00
1:55 AM,24.3,19.4,82,30.21,10.0,West,3.5,-,N/A,,Clear,280,2013-03-03 07:55:00
2:15 AM,24.3,18.9,80,30.21,10.0,WNW,3.5,-,N/A,,Clear,290,2013-03-03 08:15:00
2:35 AM,23.9,19.4,83,30.20,10.0,West,4.6,-,N/A,,Clear,280,2013-03-03 08:35:00
2:55 AM,23.7,18.5,80,30.19,10.0,Calm,Calm,-,N/A,,Clear,0,2013-03-03 08:55:00
3:15 AM,23.0,18.3,82,30.19,10.0,West,3.5,-,N/A,,Clear,280,2013-03-03 09:15:00
3:35 AM,22.6,17.1,79,30.18,10.0,Calm,Calm,-,N/A,,Clear,0,2013-03-03 09:35:00
3:55 AM,23.0,17.1,78,30.18,10.0,Calm,Calm,-,N/A,,Clear,0,2013-03-03 09:55:00
4:15 AM,23.0,17.4,79,30.18,10.0,Calm,Calm,-,N/A,,Clear,0,2013-03-03 10:15:00
4:35 AM,22.5,17.1,80,30.18,10.0,Calm,Calm,-,N/A,,Clear,0,2013-03-03 10:35:00
4:55 AM,22.8,18.3,83,30.18,10.0,Calm,Calm,-,N/A,,Clear,0,2013-03-03 10:55:00
5:15 AM,21.7,17.2,83,30.19,10.0,Calm,Calm,-,N/A,,Clear,0,2013-03-03 11:15:00
5:35 AM,21.4,16.9,83,30.18,10.0,Calm,Calm,-,N/A,,Clear,0,2013-03-03 11:35:00
6:45 AM,21.2,17.6,86,30.19,10.0,Calm,Calm,-,N/A,,Clear,0,2013-03-03 12:45:00
7:45 AM,24.8,19.4,80,30.19,10.0,Calm,Calm,-,N/A,,Clear,0,2013-03-03 13:45:00
8:45 AM,28.4,19.4,69,30.19,10.0,Calm,Calm,-,N/A,,Clear,0,2013-03-03 14:45:00
9:45 AM,32.0,17.6,55,30.19,10.0,Calm,Calm,-,N/A,,Clear,0,2013-03-03 15:45:00
10:45 AM,33.8,15.8,48,30.18,10.0,Calm,Calm,-,N/A,,Clear,0,2013-03-03 16:45:00
11:45 AM,35.6,15.8,44,30.15,10.0,Variable,3.5,-,N/A,,Mostly Cloudy,0,2013-03-03 17:45:00
12:45 PM,37.4,12.2,36,30.13,10.0,Variable,3.5,-,N/A,,Overcast,0,2013-03-03 18:45:00
1:45 PM,39.2,14.0,36,30.11,10.0,Variable,3.5,-,N/A,,Overcast,0,2013-03-03 19:45:00
3:50 PM,39.2,10.4,31,30.08,10.0,Variable,4.6,-,N/A,,Overcast,0,2013-03-03 21:50:00
4:50 PM,39.2,15.8,39,30.07,10.0,Variable,4.6,-,N/A,,Overcast,0,2013-03-03 22:50:00
5:50 PM,37.4,21.2,52,30.07,10.0,ESE,11.5,-,N/A,,Overcast,120,2013-03-03 23:50:00
6:50 PM,37.4,21.2,52,30.06,10.0,ESE,8.1,-,N/A,,Overcast,120,2013-03-04 00:50:00
7:50 PM,37.4,21.2,52,30.06,10.0,ESE,9.2,-,N/A,,Overcast,110,2013-03-04 01:50:00
8:50 PM,35.6,21.2,56,30.05,10.0,ESE,10.4,-,N/A,,Overcast,120,2013-03-04 02:50:00
9:15 PM,36.0,22.3,58,30.05,10.0,East,5.8,-,N/A,,Mostly Cloudy,100,2013-03-04 03:15:00
9:35 PM,36.0,23.0,59,30.06,10.0,East,9.2,-,N/A,,Overcast,100,2013-03-04 03:35:00
9:50 PM,35.6,23.0,60,30.05,10.0,ESE,10.4,-,N/A,,Overcast,120,2013-03-04 03:50:00
9:55 PM,36.0,23.2,60,30.05,10.0,East,6.9,-,N/A,,Overcast,100,2013-03-04 03:55:00
10:15 PM,36.0,22.8,59,30.06,10.0,ESE,8.1,-,N/A,,Overcast,110,2013-03-04 04:15:00
10:35 PM,36.0,23.2,60,30.06,10.0,ESE,6.9,-,N/A,,Overcast,110,2013-03-04 04:35:00
10:55 PM,36.1,22.8,58,30.06,10.0,ESE,8.1,-,N/A,,Overcast,110,2013-03-04 04:55:00
11:15 PM,36.5,22.1,56,30.06,10.0,East,6.9,-,N/A,,Overcast,100,2013-03-04 05:15:00
11:35 PM,36.5,22.1,56,30.06,10.0,ESE,9.2,-,N/A,,Overcast,110,2013-03-04 05:35:00
11:55 PM,36.3,22.6,58,30.05,10.0,ESE,9.2,-,N/A,,Overcast,110,2013-03-04 05:55:00